Location: *
(2.5500°S, 65.9667°W)
Time: 02:39:02
(UTC+00:00)

Explorer 7 - Visible Passes

Search period start: 22 April 2024 00:00
Search period end: 02 May 2024 00:00
Orbit: 468 x 628 km, 50.3° (Epoch: 21 April)

Date Brightness Start Highest point End Pass type
(mag) Time Alt. Az. Time Alt. Az. Time Alt. Az.
22 Apr 7.0 23:09:04 10° NNW 23:13:01 47° NE 23:15:18 21° ESE visible
23 Apr 6.6 23:02:43 10° NW 23:06:50 81° NE 23:10:18 13° SE visible
24 Apr 7.2 22:56:32 10° NW 23:00:36 60° SW 23:04:27 10° SSE visible
25 Apr 9.5 09:13:52 10° SSE 09:16:09 15° SE 09:18:28 10° E visible
25 Apr 8.2 22:50:32 10° WNW 22:54:20 36° SW 22:57:59 10° SSE visible
26 Apr 9.0 09:06:43 10° S 09:09:53 22° SE 09:13:09 10° ENE visible
26 Apr 9.0 22:44:45 10° WNW 22:48:03 23° SW 22:51:14 10° S visible
27 Apr 8.2 09:01:18 19° S 09:03:35 35° SE 09:07:23 10° ENE visible
27 Apr 9.4 22:39:21 10° W 22:41:45 15° SW 22:44:05 10° SSW visible
28 Apr 7.2 08:56:09 40° S 08:57:15 57° SE 09:01:20 10° NE visible
29 Apr 6.6 08:50:56 85° NW 08:50:56 85° NW 08:55:03 10° NE visible
30 Apr 7.7 08:45:37 38° N 08:45:37 38° N 08:48:32 10° NNE visible
01 May 8.7 08:40:11 20° N 08:40:11 20° N 08:41:47 10° N visible
